Regional Weather Roundup
Issued by NWS Wakefield, VA

Home | Current Version | Previous Version | Graphics & Text | Print | Product List | Glossary On
Versions: 1 2 3 4 5 6 7 8 9 10 11 12 13 14 15 16 17 18 19 20 21 22 23 24 25 26 27
000
ASUS41 KAKQ 152215
RWRAKQ

REGIONAL WEATHER ROUNDUP
NATIONAL WEATHER SERVICE WAKEFIELD VA
500 PM EST SUN JAN 15 2017

Note: "fair" indicates few or no clouds below 12,000 feet with no
significant weather and/or obstructions to visibility. * = Denotes
station may not report precipitation (e.g., rain,snow,etc.),
thunder or fog.

VAZ042-051-052>054-056-152300-
NORTHERN VIRGINIA

CITY           SKY/WX    TMP DP  RH WIND       PRES   REMARKS
WASH NATIONAL  CLOUDY    46  19  34 NE7       30.38R
DULLES         CLOUDY    41  17  38 N5        30.36S
FORT BELVOIR   CLOUDY    45  10  24 N3        30.37R
QUANTICO       PTCLDY    45  21  38 NE5       30.38R
FREDERICKSBRG* CLOUDY    46  28  48 CALM      30.35S
STAFFORD*      PTCLDY    43  26  49 CALM      30.40S
WARRENTON      PTCLDY    45  22  41 NE3       30.36R
CULPEPER*      CLOUDY    45  28  49 NE3       30.37S
MANASSAS*      CLEAR    N/A N/A N/A NE8       30.37S
LEESBURG*      CLOUDY    43  21  42 MISG      30.38R
WINCHESTER     CLOUDY    37  21  52 CALM      30.35R
FRONT ROYAL*   NOT AVBL
LURAY*         MOCLDY    43  37  81 NE5       30.31S
$$

VAZ048-049-060>072-079>083-152300-
CENTRAL AND SOUTH CENTRAL VIRGINIA

CITY           SKY/WX    TMP DP  RH WIND       PRES   REMARKS
RICHMOND       CLOUDY    46  28  49 N7        30.36R
CHESTERFIELD*  CLOUDY    48  19  32 E3        30.37S
PETERSBURG*    CLOUDY    46  28  49 E3        30.36S
HANOVER        CLOUDY    45  31  58 CALM      30.37S
TAPPAHANNOCK*  CLOUDY    44  18  34 CALM      30.37S
QUINTON*       FAIR      46  28  50 CALM      30.36R
CHARLOTTSVILLE CLOUDY    43  39  86 CALM      30.35R
GORDONSVILLE*  CLOUDY    43  38  81 CALM      30.35R
ORANGE*          N/A     45  39  81 CALM      30.36S
LOUISA*        CLOUDY    48  41  76 CALM      30.34R
BUMPASS*       CLOUDY    44  35  70 CALM      30.35S
FARMVILLE*     CLOUDY    47  38  73 NE6       30.34S
CREWE*         CLOUDY    46  34  63 N3        30.35R
FORT PICKETT*  CLOUDY    46  26  47 NE7       30.35R
CHASE CITY*    CLOUDY    48  33  55 CALM      30.34R
CLARKSVILLE*   CLOUDY    50  36  57 E5        30.33R
SOUTH HILL*    CLOUDY    47  35  63 CALM      30.40R
LAWRENCEVILLE* CLOUDY    46  32  57 CALM      30.34R
EMPORIA*       CLOUDY    45  28  53 N3        30.37R
$$

VAZ088>098-152300-
SOUTHEAST VIRGINIA

CITY           SKY/WX    TMP DP  RH WIND       PRES   REMARKS
NORFOLK        CLEAR     40  31  70 N9        30.37R
VIRGINIA BEACH MOCLDY    40  32  73 N6        30.36R
NORFOLK NAVAL  MOCLDY    41  30  65 N8        30.39R
WEST POINT*    PTCLDY    44  20  38 NE3       30.39R
SALUDA*        FAIR      39  31  71 CALM      30.37S
NEWPORT NEWS   CLOUDY    41  31  67 NE5       30.38R
LANGLEY AFB    CLOUDY    41  27  59 N3        30.37R
FORT EUSTIS    CLOUDY    44  30  56 SE5       30.35R
WILLIAMSBURG*  CLOUDY    46  32  57 CALM      30.38R
HR EXEC AP*    FAIR      43  28  56 NE3       30.37R
FRANKLIN*      PTCLDY    46  29  53 CALM      30.37R
US460-WAKEFLD  CLOUDY    45  31  58 CALM      30.37R
$$

VAZ020-022-025-037-045-152300-
WEST CENTRAL AND SOUTHWEST VIRGINIA

CITY           SKY/WX    TMP DP  RH WIND       PRES   REMARKS
STAUNTON*      CLOUDY    44  37  77 CALM      30.32R
WAYNESBORO*    CLOUDY    40  38  91 SE6       30.31R
HOT SPRINGS VA CLOUDY    43  43 100 W6        30.24R
LYNCHBURG      CLOUDY    46  39  76 E3        30.34R
DANVILLE       CLOUDY    52  42  69 VRB5      30.31S
SOUTH BOSTON*  CLOUDY    50  37  61 E3        30.33R
MARTINSVILLE   CLOUDY    53  42  67 SE5       30.32R
ROANOKE        CLOUDY    48  43  82 E8        30.32R
BLACKSBURG     RAIN      49  46  90 SE6       30.30R
DUBLIN*        CLOUDY    53  48  85 CALM      30.28R
MARION*        LGT RAIN  55  53  95 W8        30.29S
HILLSVILLE*    LGT RAIN  53  51  93 CALM      30.26R
RICHLANDS*     CLOUDY   N/A N/A N/A W5        30.26F
WISE*          CLOUDY    52  52 100 CALM      30.28R
ABINGDON*      CLOUDY    57  55  92 W6        30.27R
$$

MDZ021>025-VAZ099-100-152300-
SOUTHERN MARYLAND AND THE DELMARVA PENINSULA

CITY           SKY/WX    TMP DP  RH WIND       PRES   REMARKS
PATUXENT RIVER CLOUDY    38  25  59 E3        30.37S
BAY BRIDGE APT CLOUDY    39  27  60 CALM      30.38R
LEONARDTOWN    MOCLDY    37  25  60 CALM      30.39S
DOVER          CLOUDY    40  30  68 NW5       30.35S
GEORGETOWN     CLEAR     43  28  55 CALM      30.36S
EASTON         MOCLDY    39  28  65 CALM      30.41S
CAMBRIDGE      CLOUDY    37  30  75 CALM      30.37S
SALISBURY      CLOUDY    41  28  60 CALM      30.36S
OCEAN CITY     PTCLDY    39  29  67 E3        30.37R
WALLOPS ISLAND CLOUDY    40  32  73 NE7       30.37R
ACCOMACK*      CLEAR     40  31  69 CALM      30.36S
$$

NCZ012>017-030>032-152300-
NORTH CENTRAL AND EASTERN NORTH CAROLINA

CITY           SKY/WX    TMP DP  RH WIND       PRES   REMARKS
ROANOKE RAPIDS MOCLDY    50  30  46 NE5       30.35R
RALEIGH        MOCLDY    54  41  61 NE7       30.32R
ELIZABETH CITY CLEAR     45  38  76 NE8       30.37R
AHOSKIE*         N/A     49  33  54 CALM      30.36R
EDENTON*       CLEAR     47  41  79 CALM      30.37R
CURRITUCK*     PTCLDY    43  37  80 NE5       30.37R
KILL DEVIL HLS NOT AVBL
MANTEO         CLOUDY    42  39  90 NE9       30.37R
CAPE HATTERAS  CLOUDY    47  41  80 N8        30.34R
TARBORO*       NOT AVBL
GOLDSBORO      PTCLDY    55  46  72 E8        30.29S
WASHINGTON     CLEAR     51  40  67 NE7       30.35R
GREENVILLE     CLEAR     52  41  66 E6        30.34R
NEW BERN       CLOUDY    53  45  74 SE3       30.34R
WILMINGTON     CLEAR     54  47  77 E12       30.31R
$$

VAZ048-152300-
ELSEWHERE

CITY           SKY/WX    TMP DP  RH WIND       PRES   REMARKS
HARRISBURG PA  MOCLDY    37  21  52 NE7       30.36R
BALTIMORE      MOCLDY    41  26  55 NW6       30.37R
ANNAPOLIS      CLOUDY    40  31  70 CALM      30.37R
ANDREWS AFB    CLOUDY    44  19  37 CALM      30.36R
PHILADELPHIA   MOCLDY    38  20  48 N7        30.37R
HENDERSON NC   PTCLDY    47  34  60 NE6       30.33R
GREENSBORO     CLOUDY    56  45  66 E8        30.28R
ROCKY MOUNT    CLEAR     52  37  56 E5        30.33R
$$

VAZ100-152300-
MARINE

STATION/POSITION TIME  TEMP    WIND        PRES    WAVE   SWELL
                       AIR SEA DIR/SP/G            HT/PER HT/PER
                 (UTC) (F)     (DEG/KT/KT) (MB)    (FT/S) (FT/S)
CAPE MAY NJ      2142   38 39  310/  6/  8 1027.6R
LEWES DE         2142   40 41   10/  6/  7 1027.9F
OCEAN-CITY-INLET 2142   40 43   90/  3/  5 1028.6R
WACHAPREAGUE VA  2142   42 46   60/  1/  3 1028.1S
THOMAS POINT MD  2200   39 38   50/  4/  4   N/A
GOOSES REEF MD   2150   38      CALM  /  2 1029.3S
COVE POINT MD    2142   38     360/  8/  9 1029.0F
SOLOMONS ISLAND  2142   40 41  360/  5/  6   N/A
BISHOPS HEAD MD  2142   41 41   10/  3/  3 1028.6R
PINEY POINT MD   2142           90/  3/  4   N/A
POTOMAC MD       2150   40      30/  6/  8 1027.8R
CAMBRIDGE MD     2142   40 38  310/  2/  3 1027.8S
LEWISETTA VA     2142   41 41   90/  4/  5 1028.4R
RAPPAHANNOCK LGT 2142          340/ 10/ 11 1028.9R
STINGRAY PT      2150   39      30/  8/  8 1028.8R
YORK RVR RNG VA  2142   40      60/ 11/ 12 1027.8R
YORKTOWN VA      2142   41 42   80/  5/  6 1028.2R
JAMESTOWN VA     2150   46     100/  6/ 10   N/A
DOMINION TERM VA 2142   43      40/  2/  4 1028.4R
KIPTOPEKE VA     2142      43   20/  5/  7   N/A
CHES BAY BRIDGE  2142   39 42   10/ 11/ 13 1028.2R
CAPE HENRY VA    2142   40     350/ 11/ 12   N/A
WILLOUBY STN VA  2142   40      20/ 11/ 12 1029.3R
S CRANEY ISL VA  2142   40      50/ 10/ 11 1028.2R
CAPE HENRY BUOY  2142      47                N/A     3/ 5   2/11
OFFSHORE WE BUOY 2151      49                N/A     4/11   2/11
64NM E OF VA BCH 2150   46 57   20/ 16/ 19 1026.8R   4/ 5   2/ 8
DUCK PIER NC     2142   41 45   20/ 13/ 15 1027.6R
44100 DUCK FRF   2135      46                N/A     4/ 5   2/11
44056 DUCK FRF   2130      47                N/A     4/ 5   2/11
OREGON INLET NC  2142   43 49   10/  8/ 12 1027.9R
HATTERAS NC      2142   45 56   10/ 18/ 20 1027.0R
DIAMOND SHLS NC  2150   52 74   10/ 17/ 23 1026.4R   4/ 6   2/11
CAPE LOOKOUT NC  2200   49      20/ 12/ 14 1026.7R
$$




USA.gov is the U.S. government's official web portal to all federal, state and local government web resources and services.